This is the latest recevied weather packets stored in our database for station/object KD8DLP-13. If no packets are shown the sender has not sent any weather packets the latest 10 day(s).
| Time | Temp. | Humidity | Pressure | Rain* | Wind** | Luminosity | Snow |
|---|---|---|---|---|---|---|---|
| 1777932534 | 23.89° C | 39% | 999 hPa | 0 mm | - | 230 W/m² | - |
| 1777932230 | 23.89° C | 39% | 998.9 hPa | 0 mm | - | 203 W/m² | - |
| 1777931928 | 23.89° C | 39% | 999.1 hPa | 0 mm | - | 192 W/m² | - |
| 1777931624 | 23.89° C | 38% | 999.3 hPa | 0 mm | - | 300 W/m² | - |
| 1777931320 | 23.33° C | 38% | 999.3 hPa | 0 mm | - | 289 W/m² | - |
| 1777931018 | 23.89° C | 38% | 999.2 hPa | 0 mm | - | 236 W/m² | - |
| 1777930714 | 23.89° C | 39% | 999.4 hPa | 0 mm | - | 225 W/m² | - |
| 1777930410 | 23.89° C | 39% | 999.2 hPa | 0 mm | - | 248 W/m² | - |
| 1777930107 | 23.89° C | 38% | 999.5 hPa | 0 mm | - | 267 W/m² | - |
| 1777929803 | 23.89° C | 40% | 999.4 hPa | 0 mm | - | 286 W/m² | - |
| 1777929502 | 23.89° C | 38% | 999.8 hPa | 0 mm | - | 285 W/m² | - |
| 1777929197 | 23.89° C | 40% | 999.8 hPa | 0 mm | - | 316 W/m² | - |
| 1777928895 | 23.89° C | 39% | 999.7 hPa | 0 mm | - | 341 W/m² | - |
| 1777928592 | 23.33° C | 40% | 999.8 hPa | 0 mm | - | 346 W/m² | - |
| 1777928289 | 23.89° C | 39% | 999.8 hPa | 0 mm | - | 290 W/m² | - |
| 1777927987 | 23.89° C | 38% | 999.9 hPa | 0 mm | - | 360 W/m² | - |
| 1777927685 | 23.89° C | 38% | 999.9 hPa | 0 mm | - | 383 W/m² | - |
| 1777927383 | 23.89° C | 40% | 999.9 hPa | 0 mm | - | 394 W/m² | - |
| 1777927082 | 23.89° C | 41% | 1000 hPa | 0 mm | - | 384 W/m² | - |
| 1777926779 | 23.89° C | 40% | 1000 hPa | 0 mm | - | 440 W/m² | - |
| 1777926479 | 23.89° C | 39% | 1000.3 hPa | 0 mm | - | 459 W/m² | - |
| 1777926176 | 23.33° C | 39% | 1000.5 hPa | 0 mm | - | 486 W/m² | - |
| 1777925873 | 23.33° C | 40% | 1000.4 hPa | 0 mm | - | 363 W/m² | - |
| 1777925570 | 23.33° C | 39% | 1000.5 hPa | 0 mm | - | 363 W/m² | - |
| 1777925268 | 22.78° C | 41% | 1000.4 hPa | 0 mm | - | 449 W/m² | - |
* Rain latest hour (hover to see other rain measurements)
** Current wind speed in m/s (hover to see current wind gust speed)